Location: Palau
(42.3086°N, 3.1507°E)
Time: 16:18:34
(UTC+00:00)

X-37B - Visible Passes

Search period start: 23 June 2021 00:00
Search period end: 03 July 2021 00:00
Orbit: 386 x 389 km, 45.0° (Epoch: 10 June)

Date Brightness Start Highest point End Pass type
(mag) Time Alt. Az. Time Alt. Az. Time Alt. Az.
23 Jun 1.1 02:22:08 38° SSW 02:22:08 38° SSW 02:24:51 10° SE visible
23 Jun 1.3 20:30:37 10° SW 20:33:28 31° SSE 20:36:20 10° E visible
23 Jun 0.8 22:06:49 10° W 22:09:59 67° NNW 22:10:08 65° N visible
24 Jun 0.5 21:08:24 10° WSW 21:11:35 86° SSE 21:14:47 10° ENE visible
24 Jun 2.0 22:45:17 10° WNW 22:47:29 36° NW 22:47:29 36° NW visible
25 Jun 0.7 20:10:09 10° SW 20:13:15 54° SSE 20:16:23 10° ENE visible
25 Jun 1.3 21:46:49 10° W 21:49:56 53° N 21:51:53 20° ENE visible
25 Jun 3.4 23:23:39 10° WNW 23:24:10 14° WNW 23:24:10 14° WNW visible
26 Jun 0.9 20:48:20 10° W 20:51:30 67° NNW 20:54:41 10° ENE visible
26 Jun 1.4 22:25:15 10° WNW 22:28:17 50° N 22:28:17 50° N visible
27 Jun 1.5 21:26:49 10° WNW 21:29:56 49° N 21:32:18 15° ENE visible
27 Jun 3.0 23:03:33 10° WNW 23:04:34 18° WNW 23:04:34 18° WNW visible
28 Jun 1.4 20:28:20 10° W 20:31:28 53° N 20:34:36 10° ENE visible
28 Jun 0.9 22:05:11 10° WNW 22:08:21 61° N 22:08:29 60° NNE visible
29 Jun 1.4 21:06:47 10° WNW 21:09:54 51° N 21:12:24 15° E visible
29 Jun 2.8 22:43:28 10° WNW 22:44:39 20° W 22:44:39 20° W visible
30 Jun 1.5 20:08:20 10° WNW 20:11:27 49° N 20:14:34 10° ENE visible
30 Jun 0.5 21:45:06 10° WNW 21:48:17 83° NNE 21:48:33 72° E visible
01 Jul 1.0 20:46:43 10° WNW 20:49:53 61° N 20:52:27 14° E visible
01 Jul 2.7 22:23:28 10° W 22:24:43 20° W 22:24:43 20° W visible
02 Jul 0.6 21:25:01 10° WNW 21:28:10 64° SSW 21:28:38 54° SSE visible
